STARLINK-1329, 45531

Orbit data source: Space-Track

STARLINK-1329, 45531 is a payload satellite owned by SpaceX/Seattle (US) in LEO that was launched on Wed, 22 Apr 2020 UTC via an FALCON 9 launch vehicle from the Air Force Eastern Test Range (AFETR). Payload-class satellites include a variety of spacecraft equipped with specific instruments for various scientific and technological missions. These include communications satellites like Starlink; space stations such as the ISS; scientific satellites like the Hubble; Earth observation satellites from companies like Planet Labs, Umbra, and HawkEye 360; GPS; miniature CubeSats for education and research; and military/defense satellites.

Loading next visibility...
Identifier
45531, 2020-025A
Orbit
LEO
Last TLE update
1 day ago
Origin
Manufacturer
SpaceX/Seattle
Mission
Operational Commercial Communications
Bus & Motor
STARLINK, Unknown motor
Mass
260 kg wet, ~248 kg dry
Launch date (UTC)
2020-04-22 (5 years ago)
Launch vehicle
FALCON 9
Launch site
Air Force Eastern Test Range (AFETR)
Object type
Payload
Rocket body
Debris
Shape & HBR
Box + 1 Pan, 8.86 m
Radar Cross Section
13.562 m², Large (>1 m²)

Expand to show TLE details & history

TLE from 1 day ago
0 STARLINK-1329
1 45531U 20025A   25128.16270837 -.00000245  00000-0  24421-5 0  9999
2 45531  53.0562  38.1772 0001216  96.8571 263.2557 15.06394348279040
Epoch: 2025-05-08T03:54Z
Definitive object data (Epoch: 2025-05-08T03:54:18.003Z)
Latitude
0.00004°
Longitude
113.36506°
Altitude
548.207 km
Speed
7.589 km/s
True Right ascension
02h 32m 42s
True Declination
0° 00' 00"
Sunlit
Object was in daylight at TLE epoch
Visualization TLE readout
Latitude
-29.25931°
Longitude
83.55982°
Altitude
556.696 km
Speed
7.583 km/s
Apparent Right ascension
01h 37m 35s
Apparent Declination
-35° 31' 28"
Sunlit
Object is in daylight
Visualization observer readout
Local Sidereal Time
14:57:24
Azimuth
80.751° E
Elevation
-73.657°
Doppler factor
1
Orbital elements
Apogee altitude
548.341 km
Perigee altitude
546.657 km
Semi-major axis
6,925.636 km
Eccentricity
0.0001216
Inclination
53.0562°
RAAN
38.1772°
Arg. of periapsis
96.8571°
True anomaly
263.24186°
Mean anomaly
263.2557°
Eccentric anomaly
263.24878°
Mean motion
3.76577 °/min
BSTAR
0.0000024421
Orbital period
95.6 mins
Loading maneuver chart data...
Loading SW <> Apogee altitude chart data...
Loading historical data...
Loading historical data...
Loading historical data...
Loading historical data...
Loading historical data...
Loading historical data...
Loading historical data...

STARLINK-1329 Visibility forecast

Observer location: undefined°, undefined°

Span
Click to sort rows by Start time (UTC) header in descending order
Start Az.
Max El. time (UTC)
Max El. Az.
Max El.
End time (UTC)
End Az.
7 mins2025-05-09 19:52:30.841Z205.695° SW2025-05-09 19:55:30.841Z146.544° SSE36.294°2025-05-09 19:59:30.841Z60.975° ENE
5 mins2025-05-09 21:33:30.841Z288.209° WNW2025-05-09 21:35:30.841Z335.34° NNW26.194°2025-05-09 21:38:30.841Z30.318° NE
6 mins2025-05-10 02:34:30.841Z324.863° NNW2025-05-10 02:37:30.841Z51.783° ENE36.909°2025-05-10 02:40:30.841Z108.366° ESE
5 mins2025-05-10 04:14:30.841Z269.479° W2025-05-10 04:16:30.841Z230.153° WSW21.384°2025-05-10 04:19:30.841Z180.026° SSW
|